Weather in Naurskaya

Russia / Chechen Republic     43°38′59″N   45°18′33″E
temp.,
°C
wind,
m/s
gust,
m/s
humid.,
%
clouds,
%
prec.,
mm/h
press.,
hPa
HPBL,
m
14 may, fri
fri1400:00+15ese34797 0.0 101470
03:00+13e33820 0.0 101439
06:00+14e22775 0.0 101486
09:00+22ene225899 0.0 1013405
12:00+27ene33430 0.0 1012810
15:00+30e34360 0.0 10111083
18:00+25e59480 0.0 1011300
21:00+19ene35550 0.0 101180
15 may, sat
sat1500:00+17se11650 0.0 101112
03:00+17e11700 0.0 101111
06:00+18w23690 0.0 1012107
09:00+24wnw33525 0.0 1013500
12:00+29w11450 0.0 10121028
15:00+31ese11415 0.0 10111552
18:00+27ese574574 0.2 1011234
21:00+20e364426 0.4 1012100
16 may, sun
sun1600:00+18e2345100 0.0 101144
03:00+17ene22505 0.0 101021
06:00+18e125657 0.0 101062
09:00+24ene214612 0.0 1009426
12:00+29e44385 0.0 1007982
15:00+31e78274 0.0 10051369
18:00+25e712410 0.0 1005419
21:00+20ene36445 0.0 100698
17 may, mon
mon1700:00+18e224518 0.0 100524
03:00+17ese22520 0.0 100512
06:00+17e236399 0.0 100584
09:00+24e334353 0.0 1005454
12:00+29e443346 0.0 1004910
15:00+30e66295 0.0 10031021
18:00+25e57456 0.0 1004252
21:00+19ene335725 0.0 100631
18 may, tue
tue1800:00+17w486792 0.0 1007163
03:00+16w599180 0.0 1008246
06:00+17w6108534 0.0 1010374
09:00+21wnw81169100 0.4 1011833
12:00+24w8958100 0.0 10111444
15:00+23wnw5759100 0.1 10121157
18:00+21wsw6976100 0.1 1012445
21:00+18sw499095 0.9 1013287